Location: Ajisawe
(8.4333°N, 4.3833°E)
Time: 11:19:43
(UTC+00:00)

Vanguard 2 Rocket - Pass Details

Date: 23 April 2021
Orbit: 553 x 3326 km, 32.9° (Epoch: 07 May)

Event Time Altitude Azimuth Distance (km) Brightness Sun altitude
Rises 16:06:35 0° 304° (NW) 7,195 12.6 24.7°
Reaches altitude 10° 16:12:14 10° 312° (NW) 6,270 12.3 23.3°
Maximum altitude 16:30:05 36° 13° (NNE) 4,101 10.4 19.0°
Drops below altitude 10° 16:43:48 10° 76° (ENE) 4,917 10.1 15.6°
Sets 16:47:31 0° 85° (E) 5,562 10.3 14.7°
